Time,TemperatureF,DewpointF,PressureIn,WindDirection,WindDirectionDegrees,WindSpeedMPH,WindSpeedGustMPH,Humidity,HourlyPrecipIn,Conditions,Clouds,dailyrainin,SoftwareType,DateUTC
2013-09-12 00:01:00,68.7,43.3,29.91,North,0,3.0,4.0,40,0.00,,,0.00,WUHU216TE923,2013-09-12 07:01:00,
2013-09-12 00:06:00,68.7,43.3,29.91,NW,315,2.9,4.0,40,0.00,,,0.00,WUHU216TE923,2013-09-12 07:06:00,
2013-09-12 00:11:00,68.7,43.3,29.91,NNW,338,3.0,5.5,40,0.00,,,0.00,WUHU216TE923,2013-09-12 07:11:00,
2013-09-12 00:16:00,68.7,43.3,29.91,NNW,338,3.0,5.5,40,0.00,,,0.00,WUHU216TE923,2013-09-12 07:16:00,
2013-09-12 00:21:00,68.5,43.1,29.91,NW,315,3.1,5.5,40,0.00,,,0.00,WUHU216TE923,2013-09-12 07:21:00,
2013-09-12 00:26:00,68.5,43.8,29.91,NNW,338,3.2,5.7,41,0.00,,,0.00,WUHU216TE923,2013-09-12 07:26:00,
2013-09-12 00:31:00,68.4,43.7,29.91,NW,315,3.2,5.7,41,0.00,,,0.00,WUHU216TE923,2013-09-12 07:31:00,
2013-09-12 00:36:00,68.4,43.7,29.90,NNW,338,3.0,3.6,41,0.00,,,0.00,WUHU216TE923,2013-09-12 07:36:00,
2013-09-12 00:41:00,68.4,43.7,29.90,NNW,338,3.1,6.5,41,0.00,,,0.00,WUHU216TE923,2013-09-12 07:41:00,
2013-09-12 00:46:00,68.2,43.5,29.90,NW,315,3.1,6.5,41,0.00,,,0.00,WUHU216TE923,2013-09-12 07:46:00,
2013-09-12 00:51:00,68.2,43.5,29.90,NNW,338,3.2,4.6,41,0.00,,,0.00,WUHU216TE923,2013-09-12 07:51:00,
2013-09-12 00:56:00,68.0,43.3,29.90,NNW,338,3.3,4.6,41,0.00,,,0.00,WUHU216TE923,2013-09-12 07:56:00,
2013-09-12 01:01:00,67.8,43.8,29.90,NW,315,3.2,3.7,42,0.00,,,0.00,WUHU216TE923,2013-09-12 08:01:00,
2013-09-12 01:06:00,68.0,44.0,29.90,NNE,23,3.1,4.7,42,0.00,,,0.00,WUHU216TE923,2013-09-12 08:06:00,
2013-09-12 01:11:00,67.8,43.8,29.90,NNW,338,2.9,4.7,42,0.00,,,0.00,WUHU216TE923,2013-09-12 08:11:00,
2013-09-12 01:16:00,67.8,43.8,29.90,NNE,23,2.9,3.9,42,0.00,,,0.00,WUHU216TE923,2013-09-12 08:16:00,
2013-09-12 01:21:00,68.0,44.0,29.90,North,0,2.7,3.7,42,0.00,,,0.00,WUHU216TE923,2013-09-12 08:21:00,
2013-09-12 01:26:00,67.8,43.8,29.90,West,270,2.7,4.6,42,0.00,,,0.00,WUHU216TE923,2013-09-12 08:26:00,
2013-09-12 01:31:00,67.8,43.8,29.90,NNE,23,2.8,4.6,42,0.00,,,0.00,WUHU216TE923,2013-09-12 08:31:00,
2013-09-12 01:36:00,67.6,43.6,29.90,NW,315,2.7,3.8,42,0.00,,,0.00,WUHU216TE923,2013-09-12 08:36:00,
2013-09-12 01:41:00,67.6,43.6,29.90,North,0,2.5,2.7,42,0.00,,,0.00,WUHU216TE923,2013-09-12 08:41:00,
2013-09-12 01:46:00,67.6,43.6,29.90,NW,315,2.3,3.2,42,0.00,,,0.00,WUHU216TE923,2013-09-12 08:46:00,
2013-09-12 01:51:00,67.6,43.6,29.90,NW,315,2.3,3.2,42,0.00,,,0.00,WUHU216TE923,2013-09-12 08:51:00,
2013-09-12 01:56:00,67.5,43.5,29.91,NNE,23,2.3,3.0,42,0.00,,,0.00,WUHU216TE923,2013-09-12 08:56:00,
2013-09-12 02:01:00,67.3,43.3,29.91,NW,315,2.3,2.3,42,0.00,,,0.00,WUHU216TE923,2013-09-12 09:01:00,
2013-09-12 02:06:00,67.3,43.3,29.91,SW,225,2.2,3.8,42,0.00,,,0.00,WUHU216TE923,2013-09-12 09:06:00,
2013-09-12 02:11:00,67.3,43.3,29.91,NNW,338,1.8,3.8,42,0.00,,,0.00,WUHU216TE923,2013-09-12 09:11:00,
2013-09-12 02:16:00,67.1,43.1,29.90,North,0,1.6,2.3,42,0.00,,,0.00,WUHU216TE923,2013-09-12 09:16:00,
2013-09-12 02:21:00,66.9,43.6,29.90,NW,315,1.6,1.9,43,0.00,,,0.00,WUHU216TE923,2013-09-12 09:21:00,
2013-09-12 02:26:00,66.7,43.4,29.90,NNW,338,1.6,2.0,43,0.00,,,0.00,WUHU216TE923,2013-09-12 09:26:00,
2013-09-12 02:31:00,66.7,43.4,29.90,NNE,23,1.5,2.0,43,0.00,,,0.00,WUHU216TE923,2013-09-12 09:31:00,
2013-09-12 02:36:00,66.7,43.4,29.91,NW,315,1.7,1.7,43,0.00,,,0.00,WUHU216TE923,2013-09-12 09:36:00,
2013-09-12 02:41:00,66.6,43.3,29.91,NNW,338,1.6,1.9,43,0.00,,,0.00,WUHU216TE923,2013-09-12 09:41:00,
2013-09-12 02:46:00,66.6,43.3,29.91,North,0,1.4,2.2,43,0.00,,,0.00,WUHU216TE923,2013-09-12 09:46:00,
2013-09-12 02:51:00,66.2,43.6,29.91,NNE,23,1.3,2.2,44,0.00,,,0.00,WUHU216TE923,2013-09-12 09:51:00,
2013-09-12 02:56:00,66.0,43.4,29.90,NNW,338,1.1,1.3,44,0.00,,,0.00,WUHU216TE923,2013-09-12 09:56:00,
2013-09-12 03:01:00,65.7,43.7,29.90,NNW,338,0.8,2.0,45,0.00,,,0.00,WUHU216TE923,2013-09-12 10:01:00,
2013-09-12 03:06:00,65.8,43.8,29.90,NW,315,1.1,2.0,45,0.00,,,0.00,WUHU216TE923,2013-09-12 10:06:00,
2013-09-12 03:11:00,65.8,43.8,29.90,NW,315,1.1,1.2,45,0.00,,,0.00,WUHU216TE923,2013-09-12 10:11:00,
2013-09-12 03:16:00,65.8,43.8,29.90,NW,315,1.1,1.2,45,0.00,,,0.00,WUHU216TE923,2013-09-12 10:16:00,
2013-09-12 03:21:00,66.2,43.6,29.90,NNW,338,1.9,3.0,44,0.00,,,0.00,WUHU216TE923,2013-09-12 10:21:00,
2013-09-12 03:26:00,66.2,43.6,29.90,NW,315,2.2,3.4,44,0.00,,,0.00,WUHU216TE923,2013-09-12 10:26:00,
2013-09-12 03:31:00,66.2,43.6,29.90,NW,315,2.3,3.4,44,0.00,,,0.00,WUHU216TE923,2013-09-12 10:31:00,
2013-09-12 03:36:00,66.2,43.6,29.90,NNW,338,2.1,3.4,44,0.00,,,0.00,WUHU216TE923,2013-09-12 10:36:00,
2013-09-12 03:41:00,66.0,43.4,29.90,WSW,248,1.9,3.4,44,0.00,,,0.00,WUHU216TE923,2013-09-12 10:41:00,
2013-09-12 03:46:00,65.8,43.2,29.90,North,0,1.7,2.1,44,0.00,,,0.00,WUHU216TE923,2013-09-12 10:46:00,
2013-09-12 03:51:00,65.5,42.9,29.90,WSW,248,1.5,2.1,44,0.00,,,0.00,WUHU216TE923,2013-09-12 10:51:00,
2013-09-12 03:56:00,65.3,42.8,29.90,NE,45,1.2,2.3,44,0.00,,,0.00,WUHU216TE923,2013-09-12 10:56:00,
2013-09-12 04:01:00,64.9,43.0,29.90,NE,45,1.2,2.7,45,0.00,,,0.00,WUHU216TE923,2013-09-12 11:01:00,
2013-09-12 04:06:00,64.9,43.0,29.90,ENE,68,1.5,2.7,45,0.00,,,0.00,WUHU216TE923,2013-09-12 11:06:00,
2013-09-12 04:12:00,64.9,43.0,29.90,NW,315,1.7,2.2,45,0.00,,,0.00,WUHU216TE923,2013-09-12 11:12:00,
2013-09-12 04:17:00,64.8,42.9,29.91,WNW,293,1.7,2.2,45,0.00,,,0.00,WUHU216TE923,2013-09-12 11:17:00,
2013-09-12 04:22:00,64.8,42.9,29.91,West,270,1.8,2.6,45,0.00,,,0.00,WUHU216TE923,2013-09-12 11:22:00,
2013-09-12 04:27:00,64.8,42.9,29.91,North,0,1.5,2.6,45,0.00,,,0.00,WUHU216TE923,2013-09-12 11:27:00,
2013-09-12 04:32:00,64.6,42.7,29.91,NNE,23,1.3,2.4,45,0.00,,,0.00,WUHU216TE923,2013-09-12 11:32:00,
2013-09-12 04:37:00,64.8,42.9,29.91,NW,315,1.4,2.4,45,0.00,,,0.00,WUHU216TE923,2013-09-12 11:37:00,
2013-09-12 04:42:00,64.6,42.7,29.91,WNW,293,1.5,2.3,45,0.00,,,0.00,WUHU216TE923,2013-09-12 11:42:00,
2013-09-12 04:47:00,64.4,43.1,29.91,SE,135,1.5,2.4,46,0.00,,,0.00,WUHU216TE923,2013-09-12 11:47:00,
2013-09-12 04:52:00,64.6,42.7,29.91,West,270,1.5,2.4,45,0.00,,,0.00,WUHU216TE923,2013-09-12 11:52:00,
2013-09-12 04:57:00,64.4,43.1,29.90,West,270,1.5,2.4,46,0.00,,,0.00,WUHU216TE923,2013-09-12 11:57:00,
2013-09-12 05:02:00,64.4,43.1,29.90,NW,315,1.4,2.4,46,0.00,,,0.00,WUHU216TE923,2013-09-12 12:02:00,
2013-09-12 05:07:00,64.4,43.1,29.90,West,270,1.5,1.8,46,0.00,,,0.00,WUHU216TE923,2013-09-12 12:07:00,
2013-09-12 05:12:00,64.4,43.1,29.90,NNW,338,1.4,1.8,46,0.00,,,0.00,WUHU216TE923,2013-09-12 12:12:00,
2013-09-12 05:17:00,64.6,43.3,29.91,WSW,248,1.3,1.4,46,0.00,,,0.00,WUHU216TE923,2013-09-12 12:17:00,
2013-09-12 05:22:00,64.8,43.5,29.91,WNW,293,1.4,2.8,46,0.00,,,0.00,WUHU216TE923,2013-09-12 12:22:00,
2013-09-12 05:27:00,64.8,43.5,29.91,WNW,293,1.5,2.8,46,0.00,,,0.00,WUHU216TE923,2013-09-12 12:27:00,
2013-09-12 05:32:00,64.8,43.5,29.91,WNW,293,1.7,2.4,46,0.00,,,0.00,WUHU216TE923,2013-09-12 12:32:00,
2013-09-12 05:37:00,65.1,43.8,29.91,NW,315,2.0,3.2,46,0.00,,,0.00,WUHU216TE923,2013-09-12 12:37:00,
2013-09-12 05:42:00,64.9,43.6,29.91,NW,315,2.3,3.2,46,0.00,,,0.00,WUHU216TE923,2013-09-12 12:42:00,
2013-09-12 05:47:00,64.9,43.6,29.91,ENE,68,2.0,3.5,46,0.00,,,0.00,WUHU216TE923,2013-09-12 12:47:00,
2013-09-12 05:52:00,64.8,43.5,29.91,SW,225,1.9,3.5,46,0.00,,,0.00,WUHU216TE923,2013-09-12 12:52:00,
2013-09-12 05:57:00,64.8,43.5,29.90,NE,45,2.2,3.5,46,0.00,,,0.00,WUHU216TE923,2013-09-12 12:57:00,
2013-09-12 06:02:00,64.8,43.5,29.90,NNW,338,2.1,3.5,46,0.00,,,0.00,WUHU216TE923,2013-09-12 13:02:00,
2013-09-12 06:07:00,64.6,43.3,29.90,NW,315,2.1,2.4,46,0.00,,,0.00,WUHU216TE923,2013-09-12 13:07:00,
2013-09-12 06:12:00,64.6,43.3,29.90,NW,315,2.1,2.4,46,0.00,,,0.00,WUHU216TE923,2013-09-12 13:12:00,
2013-09-12 06:17:00,64.6,43.3,29.91,NW,315,2.1,2.4,46,0.00,,,0.00,WUHU216TE923,2013-09-12 13:17:00,
2013-09-12 06:22:00,64.2,43.5,29.91,West,270,1.8,2.4,47,0.00,,,0.00,WUHU216TE923,2013-09-12 13:22:00,
2013-09-12 06:27:00,64.2,44.1,29.91,WNW,293,1.9,3.0,48,0.00,,,0.00,WUHU216TE923,2013-09-12 13:27:00,
2013-09-12 06:32:00,64.0,43.9,29.91,NW,315,1.9,3.0,48,0.00,,,0.00,WUHU216TE923,2013-09-12 13:32:00,
2013-09-12 06:37:00,64.2,44.1,29.91,WSW,248,1.9,1.9,48,0.00,,,0.00,WUHU216TE923,2013-09-12 13:37:00,
2013-09-12 06:42:00,64.0,43.9,29.91,NNE,23,1.8,2.1,48,0.00,,,0.00,WUHU216TE923,2013-09-12 13:42:00,
2013-09-12 06:47:00,64.0,43.9,29.91,West,270,2.0,2.1,48,0.00,,,0.00,WUHU216TE923,2013-09-12 13:47:00,
2013-09-12 06:52:00,63.7,44.2,29.91,NNW,338,2.0,2.0,49,0.00,,,0.00,WUHU216TE923,2013-09-12 13:52:00,
2013-09-12 06:57:00,63.5,44.0,29.92,West,270,1.9,2.3,49,0.00,,,0.00,WUHU216TE923,2013-09-12 13:57:00,
2013-09-12 07:02:00,63.3,44.4,29.92,WNW,293,1.6,2.3,50,0.00,,,0.00,WUHU216TE923,2013-09-12 14:02:00,
2013-09-12 07:07:00,63.3,44.4,29.92,WSW,248,1.6,1.7,50,0.00,,,0.00,WUHU216TE923,2013-09-12 14:07:00,
2013-09-12 07:12:00,63.1,44.2,29.92,WNW,293,1.4,1.8,50,0.00,,,0.00,WUHU216TE923,2013-09-12 14:12:00,
2013-09-12 07:17:00,63.1,44.2,29.91,WSW,248,1.4,1.8,50,0.00,,,0.00,WUHU216TE923,2013-09-12 14:17:00,
2013-09-12 07:22:00,63.5,45.1,29.91,WNW,293,1.2,1.9,51,0.00,,,0.00,WUHU216TE923,2013-09-12 14:22:00,
2013-09-12 07:27:00,63.5,45.1,29.91,NW,315,1.2,1.9,51,0.00,,,0.00,WUHU216TE923,2013-09-12 14:27:00,
2013-09-12 07:32:00,63.7,45.3,29.91,NNE,23,1.0,1.9,51,0.00,,,0.00,WUHU216TE923,2013-09-12 14:32:00,
2013-09-12 07:37:00,63.7,45.8,29.92,NW,315,1.0,1.1,52,0.00,,,0.00,WUHU216TE923,2013-09-12 14:37:00,
2013-09-12 07:42:00,64.0,46.1,29.92,West,270,0.9,1.9,52,0.00,,,0.00,WUHU216TE923,2013-09-12 14:42:00,
2013-09-12 07:47:00,64.2,46.3,29.92,NNE,23,0.7,1.9,52,0.00,,,0.00,WUHU216TE923,2013-09-12 14:47:00,
2013-09-12 07:52:00,64.9,46.4,29.92,ENE,68,0.9,1.7,51,0.00,,,0.00,WUHU216TE923,2013-09-12 14:52:00,
2013-09-12 07:57:00,65.1,46.6,29.92,NW,315,1.1,1.7,51,0.00,,,0.00,WUHU216TE923,2013-09-12 14:57:00,
2013-09-12 08:02:00,65.3,47.3,29.92,NNW,338,1.0,1.3,52,0.00,,,0.00,WUHU216TE923,2013-09-12 15:02:00,
2013-09-12 08:07:00,65.5,47.5,29.92,North,0,0.9,1.6,52,0.00,,,0.00,WUHU216TE923,2013-09-12 15:07:00,
2013-09-12 08:12:00,65.7,47.1,29.92,NNW,338,0.6,1.6,51,0.00,,,0.00,WUHU216TE923,2013-09-12 15:12:00,
2013-09-12 08:17:00,66.0,47.4,29.92,NNE,23,0.7,1.0,51,0.00,,,0.00,WUHU216TE923,2013-09-12 15:17:00,
2013-09-12 08:22:00,66.2,47.0,29.92,NNW,338,0.9,2.4,50,0.00,,,0.00,WUHU216TE923,2013-09-12 15:22:00,
2013-09-12 08:27:00,66.4,47.2,29.92,NNE,23,1.2,2.8,50,0.00,,,0.00,WUHU216TE923,2013-09-12 15:27:00,
2013-09-12 08:32:00,67.1,47.3,29.92,NW,315,1.5,2.8,49,0.00,,,0.00,WUHU216TE923,2013-09-12 15:32:00,
2013-09-12 08:37:00,67.1,47.3,29.91,North,0,1.6,2.2,49,0.00,,,0.00,WUHU216TE923,2013-09-12 15:37:00,
2013-09-12 08:42:00,67.5,47.7,29.91,NW,315,1.2,2.9,49,0.00,,,0.00,WUHU216TE923,2013-09-12 15:42:00,
2013-09-12 08:47:00,67.8,47.4,29.91,NNW,338,1.3,2.9,48,0.00,,,0.00,WUHU216TE923,2013-09-12 15:47:00,
2013-09-12 08:52:00,68.0,47.6,29.91,NNE,23,1.3,1.3,48,0.00,,,0.00,WUHU216TE923,2013-09-12 15:52:00,
2013-09-12 08:57:00,68.4,48.0,29.91,ENE,68,1.2,2.0,48,0.00,,,0.00,WUHU216TE923,2013-09-12 15:57:00,
2013-09-12 09:02:00,68.5,48.0,29.91,ENE,68,1.3,2.0,48,0.00,,,0.00,WUHU216TE923,2013-09-12 16:02:00,
2013-09-12 09:07:00,68.7,48.2,29.91,NNE,23,1.3,1.9,48,0.00,,,0.00,WUHU216TE923,2013-09-12 16:07:00,
2013-09-12 09:12:00,68.9,47.8,29.91,East,90,1.4,1.9,47,0.00,,,0.00,WUHU216TE923,2013-09-12 16:12:00,
2013-09-12 09:17:00,68.9,47.8,29.91,SE,135,1.3,1.4,47,0.00,,,0.00,WUHU216TE923,2013-09-12 16:17:00,
2013-09-12 09:22:00,69.1,48.0,29.91,ENE,68,0.9,1.3,47,0.00,,,0.00,WUHU216TE923,2013-09-12 16:22:00,
2013-09-12 09:27:00,69.1,48.0,29.91,ENE,68,1.1,1.5,47,0.00,,,0.00,WUHU216TE923,2013-09-12 16:27:00,
2013-09-12 09:32:00,69.4,48.3,29.91,ENE,68,1.0,2.6,47,0.00,,,0.00,WUHU216TE923,2013-09-12 16:32:00,
2013-09-12 09:37:00,69.6,48.5,29.92,NW,315,0.9,2.6,47,0.00,,,0.00,WUHU216TE923,2013-09-12 16:37:00,
2013-09-12 09:42:00,70.0,48.8,29.92,NE,45,0.4,1.2,47,0.00,,,0.00,WUHU216TE923,2013-09-12 16:42:00,
2013-09-12 09:47:00,70.2,49.0,29.92,ENE,68,0.3,2.0,47,0.00,,,0.00,WUHU216TE923,2013-09-12 16:47:00,
2013-09-12 09:52:00,70.3,48.5,29.92,NE,45,1.0,2.0,46,0.00,,,0.00,WUHU216TE923,2013-09-12 16:52:00,
2013-09-12 09:57:00,70.5,48.7,29.91,East,90,1.4,1.6,46,0.00,,,0.00,WUHU216TE923,2013-09-12 16:57:00,
2013-09-12 10:02:00,70.9,49.1,29.91,ENE,68,1.6,3.4,46,0.00,,,0.00,WUHU216TE923,2013-09-12 17:02:00,
2013-09-12 10:07:00,71.1,49.3,29.91,North,0,1.5,3.4,46,0.00,,,0.00,WUHU216TE923,2013-09-12 17:07:00,
2013-09-12 10:12:00,71.2,48.7,29.91,NE,45,1.7,2.8,45,0.00,,,0.00,WUHU216TE923,2013-09-12 17:12:00,
2013-09-12 10:17:00,71.6,49.1,29.92,SSE,158,1.8,2.8,45,0.00,,,0.00,WUHU216TE923,2013-09-12 17:17:00,
2013-09-12 10:22:00,71.8,49.3,29.92,East,90,1.6,3.1,45,0.00,,,0.00,WUHU216TE923,2013-09-12 17:22:00,
2013-09-12 10:27:00,72.1,49.6,29.92,NE,45,1.5,3.1,45,0.00,,,0.00,WUHU216TE923,2013-09-12 17:27:00,
2013-09-12 10:32:00,72.5,49.9,29.92,ENE,68,1.4,1.9,45,0.00,,,0.00,WUHU216TE923,2013-09-12 17:32:00,
2013-09-12 10:37:00,72.7,50.1,29.91,ENE,68,1.3,1.9,45,0.00,,,0.00,WUHU216TE923,2013-09-12 17:37:00,
2013-09-12 10:42:00,72.9,49.7,29.91,ENE,68,1.4,2.3,44,0.00,,,0.00,WUHU216TE923,2013-09-12 17:42:00,
2013-09-12 10:47:00,73.0,49.8,29.91,ESE,113,1.6,2.8,44,0.00,,,0.00,WUHU216TE923,2013-09-12 17:47:00,
2013-09-12 10:52:00,73.0,49.8,29.91,SE,135,1.7,2.9,44,0.00,,,0.00,WUHU216TE923,2013-09-12 17:52:00,
2013-09-12 10:57:00,73.2,49.9,29.91,South,180,1.6,2.9,44,0.00,,,0.00,WUHU216TE923,2013-09-12 17:57:00,
2013-09-12 11:02:00,73.6,49.0,29.91,ENE,68,1.5,2.7,42,0.00,,,0.00,WUHU216TE923,2013-09-12 18:02:00,
2013-09-12 11:07:00,73.9,48.6,29.91,NW,315,1.6,2.7,41,0.00,,,0.00,WUHU216TE923,2013-09-12 18:07:00,
2013-09-12 11:12:00,74.3,49.0,29.91,North,0,1.3,1.6,41,0.00,,,0.00,WUHU216TE923,2013-09-12 18:12:00,
2013-09-12 11:17:00,74.5,49.2,29.90,SSW,203,1.0,1.5,41,0.00,,,0.00,WUHU216TE923,2013-09-12 18:17:00,
2013-09-12 11:22:00,74.8,48.8,29.90,NW,315,1.8,1.8,40,0.00,,,0.00,WUHU216TE923,2013-09-12 18:22:00,
2013-09-12 11:27:00,75.0,48.2,29.90,NW,315,1.6,1.8,39,0.00,,,0.00,WUHU216TE923,2013-09-12 18:27:00,
2013-09-12 11:32:00,75.7,48.2,29.90,NW,315,1.3,1.8,38,0.00,,,0.00,WUHU216TE923,2013-09-12 18:32:00,
2013-09-12 11:37:00,76.1,48.5,29.89,NNW,338,1.5,1.7,38,0.00,,,0.00,WUHU216TE923,2013-09-12 18:37:00,
2013-09-12 11:42:00,76.6,48.2,29.89,NW,315,1.7,1.7,37,0.00,,,0.00,WUHU216TE923,2013-09-12 18:42:00,
2013-09-12 11:47:00,76.6,47.5,29.89,ENE,68,1.7,3.2,36,0.00,,,0.00,WUHU216TE923,2013-09-12 18:47:00,
2013-09-12 11:52:00,76.6,46.7,29.89,East,90,1.8,3.2,35,0.00,,,0.00,WUHU216TE923,2013-09-12 18:52:00,
2013-09-12 11:57:00,77.0,47.1,29.89,SSE,158,2.2,2.4,35,0.00,,,0.00,WUHU216TE923,2013-09-12 18:57:00,
2013-09-12 12:02:00,77.2,47.3,29.89,ENE,68,2.1,2.2,35,0.00,,,0.00,WUHU216TE923,2013-09-12 19:02:00,
2013-09-12 12:07:00,77.4,47.5,29.89,NE,45,1.9,4.3,35,0.00,,,0.00,WUHU216TE923,2013-09-12 19:07:00,
2013-09-12 12:12:00,77.4,47.5,29.89,NNE,23,1.9,4.3,35,0.00,,,0.00,WUHU216TE923,2013-09-12 19:12:00,
2013-09-12 12:17:00,77.4,47.5,29.88,NNE,23,1.9,4.3,35,0.00,,,0.00,WUHU216TE923,2013-09-12 19:17:00,
2013-09-12 12:22:00,78.1,47.3,29.88,ENE,68,2.0,4.3,34,0.00,,,0.00,WUHU216TE923,2013-09-12 19:22:00,
2013-09-12 12:27:00,78.3,47.5,29.88,South,180,2.0,3.1,34,0.00,,,0.00,WUHU216TE923,2013-09-12 19:27:00,
2013-09-12 12:32:00,79.0,47.3,29.88,NE,45,2.4,3.1,33,0.00,,,0.00,WUHU216TE923,2013-09-12 19:32:00,
2013-09-12 12:37:00,78.8,47.1,29.87,ENE,68,2.5,2.9,33,0.00,,,0.00,WUHU216TE923,2013-09-12 19:37:00,
2013-09-12 12:42:00,78.8,47.1,29.87,NNE,23,2.4,3.7,33,0.00,,,0.00,WUHU216TE923,2013-09-12 19:42:00,
2013-09-12 12:47:00,79.0,47.3,29.87,NE,45,2.4,4.5,33,0.00,,,0.00,WUHU216TE923,2013-09-12 19:47:00,
2013-09-12 12:52:00,79.2,47.5,29.87,ENE,68,2.7,4.5,33,0.00,,,0.00,WUHU216TE923,2013-09-12 19:52:00,
2013-09-12 12:57:00,79.3,47.5,29.87,SE,135,2.8,2.8,33,0.00,,,0.00,WUHU216TE923,2013-09-12 19:57:00,
2013-09-12 13:02:00,79.5,46.9,29.87,NW,315,2.6,3.3,32,0.00,,,0.00,WUHU216TE923,2013-09-12 20:02:00,
2013-09-12 13:07:00,79.3,46.7,29.87,NNE,23,2.3,3.3,32,0.00,,,0.00,WUHU216TE923,2013-09-12 20:07:00,
2013-09-12 13:12:00,79.9,46.4,29.87,East,90,2.4,2.9,31,0.00,,,0.00,WUHU216TE923,2013-09-12 20:12:00,
2013-09-12 13:17:00,80.1,45.7,29.87,NE,45,2.5,5.6,30,0.00,,,0.00,WUHU216TE923,2013-09-12 20:17:00,
2013-09-12 13:22:00,80.1,45.7,29.87,NE,45,2.6,5.6,30,0.00,,,0.00,WUHU216TE923,2013-09-12 20:22:00,
2013-09-12 13:27:00,80.1,45.7,29.87,ENE,68,2.3,3.5,30,0.00,,,0.00,WUHU216TE923,2013-09-12 20:27:00,
2013-09-12 13:32:00,79.5,45.2,29.87,ESE,113,1.9,2.3,30,0.00,,,0.00,WUHU216TE923,2013-09-12 20:32:00,
2013-09-12 13:37:00,79.9,45.5,29.86,NE,45,1.8,2.8,30,0.00,,,0.00,WUHU216TE923,2013-09-12 20:37:00,
2013-09-12 13:42:00,80.1,45.7,29.86,ENE,68,1.8,2.8,30,0.00,,,0.00,WUHU216TE923,2013-09-12 20:42:00,
2013-09-12 13:47:00,80.6,43.4,29.86,SE,135,1.9,2.3,27,0.00,,,0.00,WUHU216TE923,2013-09-12 20:47:00,
2013-09-12 13:52:00,80.6,45.3,29.86,WNW,293,2.1,2.1,29,0.00,,,0.00,WUHU216TE923,2013-09-12 20:52:00,
2013-09-12 13:57:00,81.1,43.8,29.85,ESE,113,2.6,3.2,27,0.00,,,0.00,WUHU216TE923,2013-09-12 20:57:00,
2013-09-12 14:02:00,81.1,44.8,29.85,NNE,23,2.6,3.2,28,0.00,,,0.00,WUHU216TE923,2013-09-12 21:02:00,
2013-09-12 14:07:00,81.1,44.8,29.85,SE,135,2.3,2.6,28,0.00,,,0.00,WUHU216TE923,2013-09-12 21:07:00,
2013-09-12 14:12:00,81.3,44.9,29.85,NW,315,2.4,2.6,28,0.00,,,0.00,WUHU216TE923,2013-09-12 21:12:00,
2013-09-12 14:17:00,81.3,44.9,29.85,ENE,68,2.1,2.6,28,0.00,,,0.00,WUHU216TE923,2013-09-12 21:17:00,
2013-09-12 14:22:00,81.3,44.0,29.85,NE,45,1.8,2.1,27,0.00,,,0.00,WUHU216TE923,2013-09-12 21:22:00,
2013-09-12 14:27:00,81.5,44.2,29.85,WSW,248,1.7,2.1,27,0.00,,,0.00,WUHU216TE923,2013-09-12 21:27:00,
2013-09-12 14:32:00,81.9,43.5,29.85,ENE,68,2.0,5.1,26,0.00,,,0.00,WUHU216TE923,2013-09-12 21:32:00,
2013-09-12 14:37:00,81.9,42.5,29.85,East,90,2.2,5.1,25,0.00,,,0.00,WUHU216TE923,2013-09-12 21:37:00,
2013-09-12 14:42:00,82.2,41.7,29.85,NE,45,2.6,2.6,24,0.00,,,0.00,WUHU216TE923,2013-09-12 21:42:00,
2013-09-12 14:47:00,82.2,41.7,29.85,ESE,113,2.5,3.8,24,0.00,,,0.00,WUHU216TE923,2013-09-12 21:47:00,
2013-09-12 14:52:00,82.4,41.9,29.85,SSE,158,1.9,3.8,24,0.00,,,0.00,WUHU216TE923,2013-09-12 21:52:00,
2013-09-12 14:57:00,82.6,42.1,29.84,East,90,2.1,2.9,24,0.00,,,0.00,WUHU216TE923,2013-09-12 21:57:00,
2013-09-12 15:02:00,82.8,41.2,29.84,ESE,113,2.7,3.0,23,0.00,,,0.00,WUHU216TE923,2013-09-12 22:02:00,
2013-09-12 15:07:00,82.8,42.2,29.84,ENE,68,2.5,3.0,24,0.00,,,0.00,WUHU216TE923,2013-09-12 22:07:00,
2013-09-12 15:12:00,83.3,42.7,29.84,ENE,68,2.7,5.0,24,0.00,,,0.00,WUHU216TE923,2013-09-12 22:12:00,
2013-09-12 15:17:00,83.3,42.7,29.83,ESE,113,2.7,5.0,24,0.00,,,0.00,WUHU216TE923,2013-09-12 22:17:00,
2013-09-12 15:22:00,83.5,41.7,29.83,ESE,113,2.7,4.8,23,0.00,,,0.00,WUHU216TE923,2013-09-12 22:22:00,
2013-09-12 15:27:00,83.5,41.7,29.83,ESE,113,2.7,4.8,23,0.00,,,0.00,WUHU216TE923,2013-09-12 22:27:00,
2013-09-12 15:32:00,83.8,42.0,29.83,ENE,68,2.9,3.1,23,0.00,,,0.00,WUHU216TE923,2013-09-12 22:32:00,
2013-09-12 15:37:00,83.8,42.0,29.83,NNE,23,2.6,3.1,23,0.00,,,0.00,WUHU216TE923,2013-09-12 22:37:00,
2013-09-12 15:42:00,84.2,41.2,29.83,NE,45,2.9,5.2,22,0.00,,,0.00,WUHU216TE923,2013-09-12 22:42:00,
2013-09-12 15:47:00,84.2,41.2,29.83,SSE,158,3.1,5.2,22,0.00,,,0.00,WUHU216TE923,2013-09-12 22:47:00,
2013-09-12 15:52:00,84.7,41.6,29.83,NNE,23,2.8,4.7,22,0.00,,,0.00,WUHU216TE923,2013-09-12 22:52:00,
2013-09-12 15:57:00,84.6,41.5,29.82,SSE,158,3.0,4.7,22,0.00,,,0.00,WUHU216TE923,2013-09-12 22:57:00,
2013-09-12 16:02:00,84.7,41.6,29.82,ENE,68,3.0,3.8,22,0.00,,,0.00,WUHU216TE923,2013-09-12 23:02:00,
2013-09-12 16:07:00,84.7,41.6,29.82,NW,315,2.6,3.8,22,0.00,,,0.00,WUHU216TE923,2013-09-12 23:07:00,
2013-09-12 16:12:00,84.7,41.6,29.82,ENE,68,2.8,3.0,22,0.00,,,0.00,WUHU216TE923,2013-09-12 23:12:00,
2013-09-12 16:17:00,84.4,41.4,29.82,NE,45,2.9,4.6,22,0.00,,,0.00,WUHU216TE923,2013-09-12 23:17:00,
2013-09-12 16:22:00,84.2,41.2,29.82,NNW,338,2.9,6.3,22,0.00,,,0.00,WUHU216TE923,2013-09-12 23:22:00,
2013-09-12 16:27:00,83.8,39.7,29.82,NW,315,2.9,6.3,21,0.00,,,0.00,WUHU216TE923,2013-09-12 23:27:00,
2013-09-12 16:32:00,83.5,40.6,29.82,East,90,3.1,5.9,22,0.00,,,0.00,WUHU216TE923,2013-09-12 23:32:00,
2013-09-12 16:37:00,83.3,40.4,29.82,ENE,68,2.7,5.9,22,0.00,,,0.00,WUHU216TE923,2013-09-12 23:37:00,
2013-09-12 16:42:00,83.1,40.3,29.82,ESE,113,2.8,5.0,22,0.00,,,0.00,WUHU216TE923,2013-09-12 23:42:00,
2013-09-12 16:47:00,83.1,40.3,29.82,ESE,113,2.8,3.2,22,0.00,,,0.00,WUHU216TE923,2013-09-12 23:47:00,
2013-09-12 16:52:00,82.9,40.1,29.82,North,0,2.9,3.2,22,0.00,,,0.00,WUHU216TE923,2013-09-12 23:52:00,
2013-09-12 16:57:00,82.9,40.1,29.81,ENE,68,2.8,5.2,22,0.00,,,0.00,WUHU216TE923,2013-09-12 23:57:00,
2013-09-12 17:02:00,82.8,40.0,29.81,SE,135,2.5,5.2,22,0.00,,,0.00,WUHU216TE923,2013-09-13 00:02:00,
2013-09-12 17:07:00,82.8,40.0,29.81,ENE,68,2.7,5.1,22,0.00,,,0.00,WUHU216TE923,2013-09-13 00:07:00,
2013-09-12 17:12:00,82.6,39.9,29.81,SE,135,2.6,5.1,22,0.00,,,0.00,WUHU216TE923,2013-09-13 00:12:00,
2013-09-12 17:17:00,82.6,38.7,29.81,ENE,68,2.9,4.1,21,0.00,,,0.00,WUHU216TE923,2013-09-13 00:17:00,
2013-09-12 17:22:00,82.6,38.7,29.81,SW,225,2.5,4.1,21,0.00,,,0.00,WUHU216TE923,2013-09-13 00:22:00,
2013-09-12 17:27:00,82.6,38.7,29.81,NE,45,2.3,3.2,21,0.00,,,0.00,WUHU216TE923,2013-09-13 00:27:00,
2013-09-12 17:32:00,82.6,38.7,29.81,NNE,23,2.5,3.2,21,0.00,,,0.00,WUHU216TE923,2013-09-13 00:32:00,
2013-09-12 17:37:00,82.6,38.7,29.81,SE,135,2.6,3.2,21,0.00,,,0.00,WUHU216TE923,2013-09-13 00:37:00,
2013-09-12 17:42:00,82.0,38.2,29.81,ENE,68,2.1,3.2,21,0.00,,,0.00,WUHU216TE923,2013-09-13 00:42:00,
2013-09-12 17:47:00,81.9,39.3,29.81,NE,45,2.0,3.6,22,0.00,,,0.00,WUHU216TE923,2013-09-13 00:47:00,
2013-09-12 17:52:00,81.7,37.9,29.81,ESE,113,2.1,3.6,21,0.00,,,0.00,WUHU216TE923,2013-09-13 00:52:00,
2013-09-12 17:57:00,81.3,38.8,29.81,NE,45,2.2,3.0,22,0.00,,,0.00,WUHU216TE923,2013-09-13 00:57:00,
2013-09-12 18:02:00,81.1,38.6,29.81,NE,45,2.1,3.8,22,0.00,,,0.00,WUHU216TE923,2013-09-13 01:02:00,
2013-09-12 18:07:00,81.1,38.6,29.81,NE,45,2.5,3.8,22,0.00,,,0.00,WUHU216TE923,2013-09-13 01:07:00,
2013-09-12 18:12:00,80.8,38.4,29.81,ESE,113,2.0,2.5,22,0.00,,,0.00,WUHU216TE923,2013-09-13 01:12:00,
2013-09-12 18:17:00,80.6,38.2,29.81,ENE,68,1.6,4.0,22,0.00,,,0.00,WUHU216TE923,2013-09-13 01:17:00,
2013-09-12 18:22:00,80.2,37.8,29.81,NNW,338,2.2,4.4,22,0.00,,,0.00,WUHU216TE923,2013-09-13 01:22:00,
2013-09-12 18:27:00,80.2,37.8,29.81,NNW,338,2.0,4.4,22,0.00,,,0.00,WUHU216TE923,2013-09-13 01:27:00,
2013-09-12 18:32:00,80.1,37.8,29.81,NNE,23,1.7,2.0,22,0.00,,,0.00,WUHU216TE923,2013-09-13 01:32:00,
2013-09-12 18:37:00,79.9,37.6,29.81,ENE,68,1.4,1.7,22,0.00,,,0.00,WUHU216TE923,2013-09-13 01:37:00,
2013-09-12 18:42:00,79.5,38.4,29.81,NNW,338,1.1,2.9,23,0.00,,,0.00,WUHU216TE923,2013-09-13 01:42:00,
2013-09-12 18:47:00,79.5,38.4,29.81,NE,45,1.0,2.9,23,0.00,,,0.00,WUHU216TE923,2013-09-13 01:47:00,
2013-09-12 18:52:00,79.2,38.1,29.81,NE,45,1.2,2.5,23,0.00,,,0.00,WUHU216TE923,2013-09-13 01:52:00,
2013-09-12 18:57:00,79.2,38.1,29.81,ENE,68,1.3,2.5,23,0.00,,,0.00,WUHU216TE923,2013-09-13 01:57:00,
2013-09-12 19:02:00,78.8,37.8,29.81,North,0,1.3,2.3,23,0.00,,,0.00,WUHU216TE923,2013-09-13 02:02:00,
2013-09-12 19:07:00,78.6,36.5,29.81,NE,45,1.0,1.6,22,0.00,,,0.00,WUHU216TE923,2013-09-13 02:07:00,
2013-09-12 19:12:00,78.3,37.4,29.81,NNE,23,0.8,1.1,23,0.00,,,0.00,WUHU216TE923,2013-09-13 02:12:00,
2013-09-12 19:17:00,78.1,37.2,29.81,North,0,1.1,1.8,23,0.00,,,0.00,WUHU216TE923,2013-09-13 02:17:00,
2013-09-12 19:22:00,77.7,36.9,29.81,NNW,338,1.5,1.9,23,0.00,,,0.00,WUHU216TE923,2013-09-13 02:22:00,
2013-09-12 19:27:00,77.4,36.6,29.81,East,90,1.2,1.9,23,0.00,,,0.00,WUHU216TE923,2013-09-13 02:27:00,
2013-09-12 19:32:00,77.2,36.4,29.81,NNE,23,1.0,1.9,23,0.00,,,0.00,WUHU216TE923,2013-09-13 02:32:00,
2013-09-12 19:37:00,76.8,37.2,29.82,NE,45,1.3,1.9,24,0.00,,,0.00,WUHU216TE923,2013-09-13 02:37:00,
2013-09-12 19:42:00,76.6,38.0,29.82,NNW,338,1.8,3.2,25,0.00,,,0.00,WUHU216TE923,2013-09-13 02:42:00,
2013-09-12 19:47:00,76.5,37.9,29.82,NNE,23,2.0,3.2,25,0.00,,,0.00,WUHU216TE923,2013-09-13 02:47:00,
2013-09-12 19:52:00,76.5,38.9,29.82,NNW,338,2.3,2.8,26,0.00,,,0.00,WUHU216TE923,2013-09-13 02:52:00,
2013-09-12 19:57:00,76.3,38.8,29.82,NW,315,2.1,2.9,26,0.00,,,0.00,WUHU216TE923,2013-09-13 02:57:00,
2013-09-12 20:02:00,76.1,39.5,29.82,NW,315,2.2,2.9,27,0.00,,,0.00,WUHU216TE923,2013-09-13 03:02:00,
2013-09-12 20:07:00,75.9,40.3,29.82,NNW,338,2.4,2.5,28,0.00,,,0.00,WUHU216TE923,2013-09-13 03:07:00,
2013-09-12 20:12:00,75.7,41.0,29.82,WNW,293,2.7,2.7,29,0.00,,,0.00,WUHU216TE923,2013-09-13 03:12:00,
2013-09-12 20:17:00,75.7,41.0,29.83,NW,315,2.6,2.7,29,0.00,,,0.00,WUHU216TE923,2013-09-13 03:17:00,
2013-09-12 20:22:00,75.7,40.1,29.83,NNW,338,3.1,3.7,28,0.00,,,0.00,WUHU216TE923,2013-09-13 03:22:00,
2013-09-12 20:27:00,75.6,40.0,29.83,ESE,113,3.4,4.8,28,0.00,,,0.00,WUHU216TE923,2013-09-13 03:27:00,
2013-09-12 20:32:00,75.4,38.9,29.83,North,0,3.7,4.8,27,0.00,,,0.00,WUHU216TE923,2013-09-13 03:32:00,
2013-09-12 20:37:00,75.2,37.8,29.84,NNW,338,3.7,4.2,26,0.00,,,0.00,WUHU216TE923,2013-09-13 03:37:00,
2013-09-12 20:42:00,75.2,37.8,29.84,NW,315,3.2,4.2,26,0.00,,,0.00,WUHU216TE923,2013-09-13 03:42:00,
2013-09-12 20:47:00,75.2,37.8,29.84,NNW,338,3.4,5.5,26,0.00,,,0.00,WUHU216TE923,2013-09-13 03:47:00,
2013-09-12 20:52:00,75.0,39.5,29.84,NNW,338,3.1,5.5,28,0.00,,,0.00,WUHU216TE923,2013-09-13 03:52:00,
2013-09-12 20:57:00,74.8,40.2,29.84,NNE,23,3.0,4.2,29,0.00,,,0.00,WUHU216TE923,2013-09-13 03:57:00,
2013-09-12 21:02:00,74.7,41.0,29.84,North,0,3.1,4.4,30,0.00,,,0.00,WUHU216TE923,2013-09-13 04:02:00,
2013-09-12 21:07:00,74.5,40.9,29.84,NW,315,3.0,4.4,30,0.00,,,0.00,WUHU216TE923,2013-09-13 04:07:00,
2013-09-12 21:12:00,74.3,40.7,29.84,NNE,23,3.1,3.7,30,0.00,,,0.00,WUHU216TE923,2013-09-13 04:12:00,
2013-09-12 21:17:00,74.3,40.7,29.84,West,270,3.1,3.7,30,0.00,,,0.00,WUHU216TE923,2013-09-13 04:17:00,
2013-09-12 21:22:00,74.3,40.7,29.84,North,0,3.1,4.0,30,0.00,,,0.00,WUHU216TE923,2013-09-13 04:22:00,
2013-09-12 21:27:00,74.3,40.7,29.84,NNE,23,2.9,4.0,30,0.00,,,0.00,WUHU216TE923,2013-09-13 04:27:00,
2013-09-12 21:32:00,74.1,40.5,29.84,West,270,2.6,3.0,30,0.00,,,0.00,WUHU216TE923,2013-09-13 04:32:00,
2013-09-12 21:37:00,73.9,40.3,29.85,NNE,23,2.3,2.6,30,0.00,,,0.00,WUHU216TE923,2013-09-13 04:37:00,
2013-09-12 21:42:00,73.8,40.3,29.85,North,0,1.9,2.6,30,0.00,,,0.00,WUHU216TE923,2013-09-13 04:42:00,
2013-09-12 21:47:00,73.6,40.1,29.85,NNW,338,2.0,2.6,30,0.00,,,0.00,WUHU216TE923,2013-09-13 04:47:00,
2013-09-12 21:52:00,73.6,40.1,29.85,North,0,2.1,2.4,30,0.00,,,0.00,WUHU216TE923,2013-09-13 04:52:00,
2013-09-12 21:57:00,73.6,40.1,29.85,NNW,338,2.1,2.1,30,0.00,,,0.00,WUHU216TE923,2013-09-13 04:57:00,
2013-09-12 22:02:00,73.4,39.9,29.85,NNE,23,2.3,3.6,30,0.00,,,0.00,WUHU216TE923,2013-09-13 05:02:00,
2013-09-12 22:07:00,73.4,39.9,29.85,NW,315,2.7,3.6,30,0.00,,,0.00,WUHU216TE923,2013-09-13 05:07:00,
2013-09-12 22:12:00,73.4,39.9,29.85,NNE,23,2.9,4.4,30,0.00,,,0.00,WUHU216TE923,2013-09-13 05:12:00,
2013-09-12 22:17:00,73.4,39.9,29.85,NNW,338,2.8,4.4,30,0.00,,,0.00,WUHU216TE923,2013-09-13 05:17:00,
2013-09-12 22:22:00,73.2,41.4,29.85,NNE,23,2.7,3.0,32,0.00,,,0.00,WUHU216TE923,2013-09-13 05:22:00,
2013-09-12 22:27:00,73.0,41.2,29.85,NNW,338,2.4,3.0,32,0.00,,,0.00,WUHU216TE923,2013-09-13 05:27:00,
2013-09-12 22:32:00,73.0,41.2,29.85,NW,315,2.2,2.6,32,0.00,,,0.00,WUHU216TE923,2013-09-13 05:32:00,
2013-09-12 22:37:00,72.9,40.3,29.85,NNE,23,2.2,2.3,31,0.00,,,0.00,WUHU216TE923,2013-09-13 05:37:00,
2013-09-12 22:42:00,72.7,40.1,29.85,NW,315,2.0,2.2,31,0.00,,,0.00,WUHU216TE923,2013-09-13 05:42:00,
2013-09-12 22:47:00,72.5,40.0,29.85,NW,315,1.7,2.0,31,0.00,,,0.00,WUHU216TE923,2013-09-13 05:47:00,
2013-09-12 22:52:00,72.3,39.8,29.85,NNE,23,1.6,1.9,31,0.00,,,0.00,WUHU216TE923,2013-09-13 05:52:00,
2013-09-12 22:57:00,72.3,39.8,29.85,NNW,338,1.7,2.1,31,0.00,,,0.00,WUHU216TE923,2013-09-13 05:57:00,
2013-09-12 23:02:00,72.3,39.8,29.85,WNW,293,1.8,2.1,31,0.00,,,0.00,WUHU216TE923,2013-09-13 06:02:00,
2013-09-12 23:07:00,72.3,39.8,29.85,West,270,1.8,1.9,31,0.00,,,0.00,WUHU216TE923,2013-09-13 06:07:00,
2013-09-12 23:13:00,72.1,39.6,29.85,NNE,23,1.8,2.8,31,0.00,,,0.00,WUHU216TE923,2013-09-13 06:13:00,
2013-09-12 23:18:00,72.1,39.6,29.85,NW,315,1.8,2.8,31,0.00,,,0.00,WUHU216TE923,2013-09-13 06:18:00,
2013-09-12 23:23:00,72.1,39.6,29.85,NW,315,2.0,2.6,31,0.00,,,0.00,WUHU216TE923,2013-09-13 06:23:00,
2013-09-12 23:28:00,72.0,39.5,29.85,NW,315,2.1,3.1,31,0.00,,,0.00,WUHU216TE923,2013-09-13 06:28:00,
2013-09-12 23:33:00,72.0,39.5,29.85,NW,315,2.2,3.1,31,0.00,,,0.00,WUHU216TE923,2013-09-13 06:33:00,
2013-09-12 23:38:00,72.0,39.5,29.84,West,270,2.2,3.1,31,0.00,,,0.00,WUHU216TE923,2013-09-13 06:38:00,
2013-09-12 23:43:00,71.8,39.3,29.84,NNW,338,2.3,3.4,31,0.00,,,0.00,WUHU216TE923,2013-09-13 06:43:00,
2013-09-12 23:48:00,71.8,39.3,29.84,NW,315,2.4,3.7,31,0.00,,,0.00,WUHU216TE923,2013-09-13 06:48:00,
2013-09-12 23:53:00,71.8,39.3,29.84,NNE,23,2.2,3.7,31,0.00,,,0.00,WUHU216TE923,2013-09-13 06:53:00,
2013-09-12 23:58:00,71.6,39.2,29.85,NNW,338,2.0,3.6,31,0.00,,,0.00,WUHU216TE923,2013-09-13 06:58:00,